Regional Weather Roundup
Issued by NWS Wakefield, VA

Home | Current Version | Previous Version | Graphics & Text | Print | Product List | Glossary On
Versions: 1 2 3 4 5 6 7 8 9 10 11 12 13 14 15 16 17 18 19 20 21 22 23 24 25 26 27 28 29 30 31 32 33 34 35 36 37 38 39 40 41 42 43 44 45 46 47 48 49 50
061
ASUS41 KAKQ 251915
RWRAKQ

REGIONAL WEATHER ROUNDUP
NATIONAL WEATHER SERVICE WAKEFIELD VA
300 PM EDT WED APR 25 2018

Note: "fair" indicates few or no clouds below 12,000 feet with no
significant weather and/or obstructions to visibility. * = Denotes
station may not report precipitation (e.g., rain,snow,etc.),
thunder or fog.

VAZ042-051-052>054-056-252000-
NORTHERN VIRGINIA

CITY           SKY/WX    TMP DP  RH WIND       PRES   REMARKS
WASH NATIONAL  CLOUDY    65  58  78 NW7       29.71F
DULLES         CLOUDY    59  58  96 NW12      29.73S FOG
FORT BELVOIR   LGT RAIN  63  57  82 NW8       29.70F
QUANTICO       PTSUNNY   65  59  81 N12       29.71F
FREDERICKSBRG* CLOUDY    63  59  87 NW3       29.70F
STAFFORD*      CLOUDY    64  62  94 N10       29.74F
WARRENTON      DRIZZLE   60  56  85 N7        29.72F
CULPEPER*      CLOUDY    62  56  82 NE3       29.73F
MANASSAS*      CLOUDY    62  57  83 NW14      29.72F
LEESBURG*      LGT RAIN  55  55 100 N6        29.74F
WINCHESTER     CLOUDY    64  52  63 NW9G16    29.74F
FRONT ROYAL*   MOCLDY    64  55  72 CALM      29.72F
LURAY*         CLOUDY    64  54  68 CALM      29.73F
$$

VAZ048-049-060>072-079>083-252000-
CENTRAL AND SOUTH CENTRAL VIRGINIA

CITY           SKY/WX    TMP DP  RH WIND       PRES   REMARKS
RICHMOND       CLOUDY    63  62  97 NW8       29.71R
CHESTERFIELD*  CLOUDY    64  59  83 NW8       29.71S
PETERSBURG*    RAIN      61  58  92 W3        29.72S
HANOVER        CLOUDY    62  59  90 W6        29.73R
TAPPAHANNOCK*  CLOUDY    68  61  79 NW3       29.69S
QUINTON*       CLOUDY    64  61  89 W8G18     29.69S
CHARLOTTSVILLE PTSUNNY   68  59  73 VRB3      29.71F
GORDONSVILLE*  CLOUDY    63  60  90 NE3       29.72S
ORANGE*        CLOUDY    63  57  82 CALM      29.72F
LOUISA*        CLOUDY    63  58  84 N6        29.75F
BUMPASS*       NOT AVBL
FARMVILLE*     PTSUNNY  N/A N/A N/A N3        29.70F
CREWE*         CLOUDY    63  63 100 CALM      29.71F
FORT PICKETT*  CLOUDY    61  61 100 NW6       29.72S
CHASE CITY*    CLOUDY    61  61 100 NW5       29.73S
CLARKSVILLE*   CLOUDY    63  61  94 NW5       29.72S
SOUTH HILL*    CLOUDY    63  61  93 N8        29.77R
LAWRENCEVILLE* CLOUDY    65  61  86 NW5       29.70S
EMPORIA*         N/A     64  61  88 SW5       29.71R
$$

VAZ088>098-252000-
SOUTHEAST VIRGINIA

CITY           SKY/WX    TMP DP  RH WIND       PRES   REMARKS
NORFOLK        PTSUNNY   68  59  73 NE10      29.66F
VIRGINIA BEACH PTSUNNY   65  59  81 E6        29.66F
NORFOLK NAVAL  FAIR      72  59  63 W8        29.67F
WEST POINT*    CLOUDY    65  60  85 W6        29.70S
SALUDA*        CLOUDY    61  61 100 E3        29.68S
NEWPORT NEWS   PTSUNNY   72  60  66 W8        29.67F
LANGLEY AFB    PTSUNNY   72  62  69 S6        29.67F
FORT EUSTIS    PTSUNNY   69  61  76 N5        29.65F
WILLIAMSBURG*  FAIR      70  61  73 NW7       29.69S
HR EXEC AP*    MOCLDY    73  59  61 SW6       29.67F
FRANKLIN*      PTSUNNY   66  62  89 CALM      29.68F
US460-WAKEFLD  PTSUNNY   70  59  68 W7        29.68F
$$

VAZ020-022-025-037-045-252000-
WEST CENTRAL AND SOUTHWEST VIRGINIA

CITY           SKY/WX    TMP DP  RH WIND       PRES   REMARKS
STAUNTON*      CLOUDY    62  53  73 W6        29.77S
WAYNESBORO*    CLOUDY    60  54  82 W6        29.76S
HOT SPRINGS VA CLOUDY    43  43 100 NW12G18   29.82S
LYNCHBURG      CLOUDY    62  54  74 NW7       29.75F
DANVILLE       CLOUDY    65  59  81 N8        29.75F
SOUTH BOSTON*  CLOUDY    60  58  95 NW9       29.74S
MARTINSVILLE   CLOUDY    66  53  61 N8        29.79F
ROANOKE        LGT RAIN  64  53  67 NW13G21   29.78F
BLACKSBURG     CLOUDY    62  53  71 NW13      29.83S
DUBLIN*        LGT RAIN  59  55  85 W6        29.84S
MARION*        CLOUDY    58  51  77 W14       29.88F
HILLSVILLE*    CLOUDY    59  50  71 NW12      29.82S
RICHLANDS*     CLOUDY    54  21  27 NW8       29.89S
WISE*          DRIZZLE   54  54 100 NW10G18   29.92S
ABINGDON*      CLOUDY    61  52  74 NW7       29.89S
$$

MDZ021>025-VAZ099-100-252000-
SOUTHERN MARYLAND AND THE DELMARVA PENINSULA

CITY           SKY/WX    TMP DP  RH WIND       PRES   REMARKS
PATUXENT RIVER PTSUNNY   65  60  84 N5        29.68F
BAY BRIDGE APT CLOUDY    63  59  88 N6        29.69F
LEONARDTOWN    CLOUDY    61  59  94 NE3       29.70F
DOVER          MOSUNNY   65  59  81 N7        29.67F
GEORGETOWN     CLOUDY    69  61  75 N7        29.65F
EASTON         PTSUNNY   68  63  83 NW9       29.71F
CAMBRIDGE      MOSUNNY   70  63  78 VRB7      29.67F
SALISBURY      CLOUDY    73  59  61 SW8       29.65F
TANGIER        CLOUDY    66  61  82 SW3       29.68F
OCEAN CITY     PTSUNNY   59  57  93 S8        29.69F FOG
WALLOPS ISLAND PTSUNNY   66  61  84 S10       29.69F
ACCOMACK*      CLOUDY    68  58  71 W6        29.68F
$$

NCZ012>017-030>032-252000-
NORTH CENTRAL AND EASTERN NORTH CAROLINA

CITY           SKY/WX    TMP DP  RH WIND       PRES   REMARKS
ROANOKE RAPIDS MOCLDY    64  61  88 W6        29.70S
RALEIGH        CLOUDY    61  59  93 W6        29.75R
ELIZABETH CITY FAIR      73  62  68 S10       29.66F
AHOSKIE*       CLOUDY    71  63  76 CALM      29.68F
EDENTON*       PTSUNNY   74  63  70 S6        29.67F
CURRITUCK*     NOT AVBL
KILL DEVIL HLS FAIR      74  58  57 MISG      29.66F
MANTEO         FAIR      70  59  68 S20       29.68F
CAPE HATTERAS  FAIR      72  62  71 SW14G22   29.72F
TARBORO*       NOT AVBL
GOLDSBORO      PTSUNNY   73  58  59 W21G26    29.69F
WASHINGTON     PTSUNNY   76  58  53 W12G21    29.68F
GREENVILLE     FAIR      73  57  56 W8        29.73F
NEW BERN       FAIR      76  57  51 SW14G20   29.70F
WILMINGTON     PTSUNNY   76  56  49 W16       29.72F
$$

VAZ048-252000-
ELSEWHERE

CITY           SKY/WX    TMP DP  RH WIND       PRES   REMARKS
HARRISBURG PA  CLOUDY    61  57  87 W6        29.70F
BALTIMORE      CLOUDY    64  60  87 N3        29.69S
ANNAPOLIS      CLOUDY    65  58  78 N7        29.68F
ANDREWS AFB    CLOUDY    63  59  88 NW7       29.69S
PHILADELPHIA   CLOUDY    66  59  78 SE5       29.69F
HENDERSON NC   CLOUDY    59  55  88 NW3       29.73R
GREENSBORO     PTSUNNY   67  57  70 NW9       29.76S
ROCKY MOUNT    FAIR      71  60  68 SW10G18   29.70F
$$

VAZ100-252000-
MARINE

STATION/POSITION TIME  TEMP    WIND        PRES    WAVE   SWELL
                       AIR SEA DIR/SP/G            HT/PER HT/PER
                 (UTC) (F)     (DEG/KT/KT) (MB)    (FT/S) (FT/S)
BRANDYWINE LGT   1836   53     140/  7/  9 1005.8F
CAPE MAY NJ      1836   56 52  140/  8/ 10 1005.0F
LEWES DE         1836   61 51  130/  8/ 11 1004.4F
15NM E FENWICK I 1850   47 48  190/  8/ 10 1005.7F   9/11   8/11
OCEAN-CITY-INLET 1836   55 53  180/  7/ 10 1005.8F
WACHAPREAGUE VA  1836   61 59  180/  8/ 10 1005.4F
THOMAS POINT MD  1900   58 53   40/  9/ 10 1006.3F
GOOSES REEF MD   1900   56      60/  4/  6 1006.1
COVE POINT MD    1836   55     350/  6/  7 1006.2F
SOLOMONS ISLAND  1836   60 54  360/  5/  7 1005.0F
BISHOPS HEAD MD  1836   57 58  270/  5/  7 1005.6F
PINEY POINT MD   1848          350/  5/  6   N/A
POTOMAC MD       1900   59 55   70/  4/  8 1006.4    0
CAMBRIDGE MD     1836   67 55              1006.0F
LEWISETTA VA     1836   58 55   80/  4/  5 1005.2F
RAPPAHANNOCK LGT 1836           50/  3/  4 1005.9F
YORK RVR RNG VA  1836   65      40/  4/  5 1005.4F
YORKTOWN VA      1836   66 57  280/  1/  4 1004.4F
DOMINION TERM VA 1836   66     220/  6/  7 1005.0F
KIPTOPEKE VA     1836      57  180/  5/  6   N/A
CAPE HENRY VA    1836   58     100/  6/  7   N/A
WILLOUBY STN VA  1836   66     260/  9/ 10 1004.7F
S CRANEY ISL VA  1836   72     250/  5/ 10 1004.5F
CAPE HENRY BUOY  1900      55                N/A     6/10   3/11
1ST LANDING BUOY 1900   58 57  110/  6/  8 1004.8
64NM E OF VA BCH 1850   56 51  190/  8/ 10 1006.1F  10/10  10/10
DUCK PIER NC     1836   71 52  190/  7/ 12 1004.5F
44100 DUCK FRF   1845      54                N/A     8/11   5/11
44056 DUCK FRF   1830      54                N/A     6/11   3/11
OREGON INLET NC  1836   64 56  180/ 15/ 18 1005.6F
HATTERAS NC      1836   69 65  200/  7/ 12 1006.3F
DIAMOND SHLS NC  1900   70 70  220/ 14/ 17 1006.8
CAPE LOOKOUT NC  1900          200/ 15/ 17 1007.0F
$$




USA.gov is the U.S. government's official web portal to all federal, state and local government web resources and services.